Time,TemperatureF,DewpointF,PressureIn,WindDirection,WindDirectionDegrees,WindSpeedMPH,WindSpeedGustMPH,Humidity,HourlyPrecipIn,Conditions,Clouds,dailyrainin,SoftwareType,DateUTC
2013-02-10 00:02:00,28.5,19.6,30.18,West,261,0.1,2.3,69,0.00,CLR,SCT,0.00,WeatherDisplay:10.37,2013-02-10 07:02:00,
2013-02-10 00:07:00,28.2,19.7,30.18,West,261,0.4,1.0,70,0.00,CLR,SCT,0.00,WeatherDisplay:10.37,2013-02-10 07:07:00,
2013-02-10 00:12:00,27.8,19.6,30.17,West,261,0.8,2.3,71,0.00,CLR,SCT,0.00,WeatherDisplay:10.37,2013-02-10 07:12:00,
2013-02-10 00:17:00,27.8,19.6,30.17,West,261,0.0,1.2,71,0.00,CLR,SCT,0.00,WeatherDisplay:10.37,2013-02-10 07:17:00,
2013-02-10 00:22:00,27.6,19.8,30.17,West,261,0.0,1.2,72,0.00,CLR,SCT,0.00,WeatherDisplay:10.37,2013-02-10 07:22:00,
2013-02-10 00:27:00,27.3,19.5,30.17,West,261,0.2,2.3,72,0.00,CLR,SCT,0.00,WeatherDisplay:10.37,2013-02-10 07:27:00,
2013-02-10 00:32:00,27.0,19.5,30.18,West,261,0.0,0.0,73,0.00,CLR,SCT,0.00,WeatherDisplay:10.37,2013-02-10 07:32:00,
2013-02-10 00:37:00,26.9,19.4,30.18,West,261,0.0,0.0,73,0.00,CLR,SCT,0.00,WeatherDisplay:10.37,2013-02-10 07:37:00,
2013-02-10 00:42:00,26.9,19.4,30.18,West,261,0.0,0.0,73,0.00,CLR,SCT,0.00,WeatherDisplay:10.37,2013-02-10 07:42:00,
2013-02-10 00:47:00,26.8,19.3,30.18,West,261,0.0,0.0,73,0.00,CLR,SCT,0.00,WeatherDisplay:10.37,2013-02-10 07:47:00,
2013-02-10 00:52:00,26.3,18.8,30.17,West,261,0.0,0.0,73,0.00,CLR,SCT,0.00,WeatherDisplay:10.37,2013-02-10 07:52:00,
2013-02-10 00:57:00,26.0,19.2,30.17,West,261,0.0,0.0,75,0.00,CLR,SCT,0.00,WeatherDisplay:10.37,2013-02-10 07:57:00,
2013-02-10 01:02:00,26.0,19.2,30.18,West,261,0.0,0.0,75,0.00,CLR,SCT,0.00,WeatherDisplay:10.37,2013-02-10 08:02:00,
2013-02-10 01:07:00,26.0,19.2,30.18,West,261,0.0,0.0,75,0.00,CLR,SCT,0.00,WeatherDisplay:10.37,2013-02-10 08:07:00,
2013-02-10 01:12:00,26.0,18.8,30.18,West,261,0.0,0.0,74,0.00,CLR,SCT,0.00,WeatherDisplay:10.37,2013-02-10 08:12:00,
2013-02-10 01:17:00,25.9,18.7,30.18,West,261,0.0,0.0,74,0.00,CLR,SCT,0.00,WeatherDisplay:10.37,2013-02-10 08:17:00,
2013-02-10 01:22:00,25.6,18.5,30.18,West,261,0.1,0.0,74,0.00,CLR,SCT,0.00,WeatherDisplay:10.37,2013-02-10 08:22:00,
2013-02-10 01:27:00,24.9,18.4,30.18,West,261,0.0,0.0,76,0.00,CLR,SCT,0.00,WeatherDisplay:10.37,2013-02-10 08:27:00,
2013-02-10 01:32:00,24.7,18.5,30.18,West,261,0.0,0.0,77,0.00,CLR,SCT,0.00,WeatherDisplay:10.37,2013-02-10 08:32:00,
2013-02-10 01:37:00,24.8,18.6,30.18,West,261,0.0,0.0,77,0.00,CLR,SCT,0.00,WeatherDisplay:10.37,2013-02-10 08:37:00,
2013-02-10 01:42:00,24.9,18.4,30.18,West,261,0.0,0.0,76,0.00,CLR,SCT,0.00,WeatherDisplay:10.37,2013-02-10 08:42:00,
2013-02-10 01:47:00,24.9,18.1,30.18,West,261,0.0,0.0,75,0.00,CLR,SCT,0.00,WeatherDisplay:10.37,2013-02-10 08:47:00,
2013-02-10 01:52:00,24.7,18.2,30.18,West,261,0.0,0.0,76,0.00,CLR,SCT,0.00,WeatherDisplay:10.37,2013-02-10 08:52:00,
2013-02-10 01:57:00,24.3,17.8,30.18,West,261,0.1,0.0,76,0.00,CLR,SCT,0.00,WeatherDisplay:10.37,2013-02-10 08:57:00,
2013-02-10 02:02:00,24.4,17.9,30.18,West,261,0.0,1.2,76,0.00,CLR,SCT,0.00,WeatherDisplay:10.37,2013-02-10 09:02:00,
2013-02-10 02:07:00,24.7,18.2,30.18,West,261,0.0,1.2,76,0.00,CLR,SCT,0.00,WeatherDisplay:10.37,2013-02-10 09:07:00,
2013-02-10 02:12:00,24.9,18.1,30.18,West,261,0.0,0.0,75,0.00,CLR,SCT,0.00,WeatherDisplay:10.37,2013-02-10 09:12:00,
2013-02-10 02:17:00,25.1,18.0,30.18,West,261,0.0,0.0,74,0.00,CLR,SCT,0.00,WeatherDisplay:10.37,2013-02-10 09:17:00,
2013-02-10 02:22:00,25.2,18.1,30.18,West,261,0.7,1.2,74,0.00,CLR,SCT,0.00,WeatherDisplay:10.37,2013-02-10 09:22:00,
2013-02-10 02:27:00,25.4,18.6,30.18,West,261,0.5,1.2,75,0.00,CLR,SCT,0.00,WeatherDisplay:10.37,2013-02-10 09:27:00,
2013-02-10 02:32:00,25.5,19.0,30.18,West,261,0.2,1.2,76,0.00,CLR,SCT,0.00,WeatherDisplay:10.37,2013-02-10 09:32:00,
2013-02-10 02:37:00,25.4,19.2,30.18,West,261,0.2,0.0,77,0.00,CLR,SCT,0.00,WeatherDisplay:10.37,2013-02-10 09:37:00,
2013-02-10 02:42:00,25.5,19.0,30.18,West,261,0.0,0.0,76,0.00,CLR,SCT,0.00,WeatherDisplay:10.37,2013-02-10 09:42:00,
2013-02-10 02:47:00,25.4,18.6,30.18,West,261,0.0,0.0,75,0.00,CLR,SCT,0.00,WeatherDisplay:10.37,2013-02-10 09:47:00,
2013-02-10 02:52:00,25.0,18.2,30.18,West,261,0.0,0.0,75,0.00,CLR,SCT,0.00,WeatherDisplay:10.37,2013-02-10 09:52:00,
2013-02-10 02:57:00,24.7,18.2,30.18,West,261,0.0,0.0,76,0.00,CLR,SCT,0.00,WeatherDisplay:10.37,2013-02-10 09:57:00,
2013-02-10 03:02:00,24.7,18.5,30.18,West,261,0.0,0.0,77,0.00,CLR,SCT,0.00,WeatherDisplay:10.37,2013-02-10 10:02:00,
2013-02-10 03:07:00,24.8,18.3,30.18,West,261,0.0,0.0,76,0.00,CLR,SCT,0.00,WeatherDisplay:10.37,2013-02-10 10:07:00,
2013-02-10 03:12:00,25.0,18.2,30.18,West,261,0.0,0.0,75,0.00,CLR,SCT,0.00,WeatherDisplay:10.37,2013-02-10 10:12:00,
2013-02-10 03:17:00,25.1,18.3,30.18,West,261,0.0,0.0,75,0.00,CLR,SCT,0.00,WeatherDisplay:10.37,2013-02-10 10:17:00,
2013-02-10 03:22:00,25.1,18.6,30.18,West,261,0.8,2.3,76,0.00,CLR,SCT,0.00,WeatherDisplay:10.37,2013-02-10 10:22:00,
2013-02-10 03:27:00,24.7,18.2,30.18,West,261,0.0,0.0,76,0.00,CLR,SCT,0.00,WeatherDisplay:10.37,2013-02-10 10:27:00,
2013-02-10 03:32:00,24.7,18.5,30.18,West,261,0.0,0.0,77,0.00,CLR,SCT,0.00,WeatherDisplay:10.37,2013-02-10 10:32:00,
2013-02-10 03:37:00,24.9,18.7,30.18,West,261,0.0,0.0,77,0.00,CLR,SCT,0.00,WeatherDisplay:10.37,2013-02-10 10:37:00,
2013-02-10 03:42:00,25.1,18.6,30.18,West,261,0.0,0.0,76,0.00,CLR,SCT,0.00,WeatherDisplay:10.37,2013-02-10 10:42:00,
2013-02-10 03:47:00,25.0,18.5,30.18,West,261,0.2,2.3,76,0.00,CLR,SCT,0.00,WeatherDisplay:10.37,2013-02-10 10:47:00,
2013-02-10 03:52:00,25.1,18.6,30.18,West,261,0.0,0.0,76,0.00,CLR,SCT,0.00,WeatherDisplay:10.37,2013-02-10 10:52:00,
2013-02-10 03:57:00,25.0,18.8,30.17,West,261,0.0,0.0,77,0.00,CLR,SCT,0.00,WeatherDisplay:10.37,2013-02-10 10:57:00,
2013-02-10 04:02:00,25.1,19.2,30.18,West,261,0.0,0.0,78,0.00,CLR,SCT,0.00,WeatherDisplay:10.37,2013-02-10 11:02:00,
2013-02-10 04:07:00,25.3,19.4,30.18,West,261,0.0,0.0,78,0.00,CLR,SCT,0.00,WeatherDisplay:10.37,2013-02-10 11:07:00,
2013-02-10 04:12:00,25.1,18.9,30.17,West,261,0.3,1.2,77,0.00,CLR,SCT,0.00,WeatherDisplay:10.37,2013-02-10 11:12:00,
2013-02-10 04:17:00,24.9,19.0,30.18,West,261,0.4,2.0,78,0.00,CLR,SCT,0.00,WeatherDisplay:10.37,2013-02-10 11:17:00,
2013-02-10 04:22:00,24.8,18.9,30.18,West,261,0.0,0.0,78,0.00,CLR,SCT,0.00,WeatherDisplay:10.37,2013-02-10 11:22:00,
2013-02-10 04:27:00,24.8,19.2,30.18,West,261,0.0,1.2,79,0.00,CLR,SCT,0.00,WeatherDisplay:10.37,2013-02-10 11:27:00,
2013-02-10 04:32:00,24.9,19.0,30.18,West,261,0.0,0.0,78,0.00,CLR,SCT,0.00,WeatherDisplay:10.37,2013-02-10 11:32:00,
2013-02-10 04:37:00,25.0,19.1,30.18,West,261,0.0,0.0,78,0.00,CLR,SCT,0.00,WeatherDisplay:10.37,2013-02-10 11:37:00,
2013-02-10 04:42:00,25.2,19.3,30.18,West,261,0.2,0.0,78,0.00,CLR,SCT,0.00,WeatherDisplay:10.37,2013-02-10 11:42:00,
2013-02-10 04:47:00,24.7,18.5,30.18,WSW,246,0.6,1.0,77,0.00,CLR,SCT,0.00,WeatherDisplay:10.37,2013-02-10 11:47:00,
2013-02-10 04:52:00,24.6,18.4,30.18,WSW,240,1.6,2.3,77,0.00,CLR,SCT,0.00,WeatherDisplay:10.37,2013-02-10 11:52:00,
2013-02-10 04:57:00,24.7,18.8,30.18,WSW,241,1.2,2.3,78,0.00,CLR,SCT,0.00,WeatherDisplay:10.37,2013-02-10 11:57:00,
2013-02-10 05:02:00,25.1,18.9,30.18,WSW,247,0.1,1.2,77,0.00,CLR,SCT,0.00,WeatherDisplay:10.37,2013-02-10 12:02:00,
2013-02-10 05:07:00,24.9,18.7,30.18,WSW,248,0.0,0.0,77,0.00,CLR,SCT,0.00,WeatherDisplay:10.37,2013-02-10 12:07:00,
2013-02-10 05:12:00,24.6,18.4,30.18,WSW,249,0.0,0.0,77,0.00,CLR,SCT,0.00,WeatherDisplay:10.37,2013-02-10 12:12:00,
2013-02-10 05:17:00,24.2,18.3,30.18,WSW,247,0.0,0.0,78,0.00,CLR,SCT,0.00,WeatherDisplay:10.37,2013-02-10 12:17:00,
2013-02-10 05:22:00,24.6,18.7,30.19,WSW,248,0.0,0.0,78,0.00,CLR,SCT,0.00,WeatherDisplay:10.37,2013-02-10 12:22:00,
2013-02-10 05:27:00,24.6,18.4,30.18,WSW,248,0.0,0.0,77,0.00,CLR,SCT,0.00,WeatherDisplay:10.37,2013-02-10 12:27:00,
2013-02-10 05:32:00,24.5,18.0,30.18,WSW,246,0.0,1.2,76,0.00,CLR,SCT,0.00,WeatherDisplay:10.37,2013-02-10 12:32:00,
2013-02-10 05:37:00,24.4,18.2,30.19,East,84,0.1,1.2,77,0.00,CLR,SCT,0.00,WeatherDisplay:10.37,2013-02-10 12:37:00,
2013-02-10 05:42:00,24.2,18.3,30.19,WNW,290,1.1,2.3,78,0.00,CLR,SCT,0.00,WeatherDisplay:10.37,2013-02-10 12:42:00,
2013-02-10 05:47:00,24.9,18.7,30.19,WSW,250,1.1,2.3,77,0.00,CLR,SCT,0.00,WeatherDisplay:10.37,2013-02-10 12:47:00,
2013-02-10 05:52:00,24.9,18.7,30.19,WSW,247,1.7,2.3,77,0.00,CLR,SCT,0.00,WeatherDisplay:10.37,2013-02-10 12:52:00,
2013-02-10 05:57:00,25.3,19.1,30.19,WSW,250,1.4,3.5,77,0.00,CLR,SCT,0.00,WeatherDisplay:10.37,2013-02-10 12:57:00,
2013-02-10 06:02:00,25.3,19.1,30.19,WSW,254,0.0,0.0,77,0.00,CLR,SCT,0.00,WeatherDisplay:10.37,2013-02-10 13:02:00,
2013-02-10 06:07:00,25.4,18.9,30.19,West,261,0.0,0.0,76,0.00,CLR,SCT,0.00,WeatherDisplay:10.37,2013-02-10 13:07:00,
2013-02-10 06:12:00,25.5,19.3,30.19,WSW,252,0.0,0.0,77,0.00,CLR,SCT,0.00,WeatherDisplay:10.37,2013-02-10 13:12:00,
2013-02-10 06:17:00,25.6,19.4,30.19,SW,231,0.0,0.0,77,0.00,CLR,SCT,0.00,WeatherDisplay:10.37,2013-02-10 13:17:00,
2013-02-10 06:22:00,25.3,19.4,30.20,SW,225,0.0,0.0,78,0.00,CLR,SCT,0.00,WeatherDisplay:10.37,2013-02-10 13:22:00,
2013-02-10 06:27:00,25.1,19.5,30.20,SW,220,0.0,0.0,79,0.00,CLR,SCT,0.00,WeatherDisplay:10.37,2013-02-10 13:27:00,
2013-02-10 06:32:00,25.2,19.3,30.20,SW,221,0.0,0.0,78,0.00,CLR,SCT,0.00,WeatherDisplay:10.37,2013-02-10 13:32:00,
2013-02-10 06:37:00,25.1,18.9,30.20,WSW,251,0.0,0.0,77,0.00,CLR,SCT,0.00,WeatherDisplay:10.37,2013-02-10 13:37:00,
2013-02-10 06:42:00,24.9,19.0,30.20,SW,235,0.0,0.0,78,0.00,CLR,SCT,0.00,WeatherDisplay:10.37,2013-02-10 13:42:00,
2013-02-10 06:47:00,24.4,18.8,30.20,SSW,204,0.0,0.0,79,0.00,CLR,SCT,0.00,WeatherDisplay:10.37,2013-02-10 13:47:00,
2013-02-10 06:52:00,23.8,18.2,30.20,West,267,0.0,0.0,79,0.00,CLR,SCT,0.00,WeatherDisplay:10.37,2013-02-10 13:52:00,
2013-02-10 06:57:00,23.8,18.5,30.20,WSW,256,0.0,0.0,80,0.00,CLR,SCT,0.00,WeatherDisplay:10.37,2013-02-10 13:57:00,
2013-02-10 07:02:00,23.3,18.0,30.20,SSW,205,0.0,0.0,80,0.00,CLR,SCT,0.00,WeatherDisplay:10.37,2013-02-10 14:02:00,
2013-02-10 07:07:00,25.4,19.5,30.20,WSW,253,0.0,0.0,78,0.00,CLR,SCT,0.00,WeatherDisplay:10.37,2013-02-10 14:07:00,
2013-02-10 07:12:00,25.1,18.3,30.20,WSW,255,0.0,0.0,75,0.00,CLR,SCT,0.00,WeatherDisplay:10.37,2013-02-10 14:12:00,
2013-02-10 07:17:00,24.1,17.9,30.21,SW,223,0.0,0.0,77,0.00,CLR,SCT,0.00,WeatherDisplay:10.37,2013-02-10 14:17:00,
2013-02-10 07:22:00,23.9,18.0,30.21,WSW,247,0.0,0.0,78,0.00,CLR,SCT,0.00,WeatherDisplay:10.37,2013-02-10 14:22:00,
2013-02-10 07:27:00,24.1,18.2,30.21,WSW,249,0.0,0.0,78,0.00,CLR,SCT,0.00,WeatherDisplay:10.37,2013-02-10 14:27:00,
2013-02-10 07:32:00,24.3,18.4,30.21,SW,234,0.0,0.0,78,0.00,CLR,SCT,0.00,WeatherDisplay:10.37,2013-02-10 14:32:00,
2013-02-10 07:37:00,24.8,18.9,30.21,WSW,248,0.0,0.0,78,0.00,CLR,SCT,0.00,WeatherDisplay:10.37,2013-02-10 14:37:00,
2013-02-10 07:42:00,25.5,19.6,30.21,WSW,252,0.0,0.0,78,0.00,CLR,SCT,0.00,WeatherDisplay:10.37,2013-02-10 14:42:00,
2013-02-10 07:47:00,26.4,20.2,30.22,WSW,248,0.0,0.0,77,0.00,CLR,SCT,0.00,WeatherDisplay:10.37,2013-02-10 14:47:00,
2013-02-10 07:52:00,27.3,21.0,30.22,SW,224,0.0,0.0,77,0.00,CLR,SCT,0.00,WeatherDisplay:10.37,2013-02-10 14:52:00,
2013-02-10 07:57:00,29.0,22.1,30.22,SSW,204,0.0,0.0,75,0.00,CLR,SCT,0.00,WeatherDisplay:10.37,2013-02-10 14:57:00,
2013-02-10 08:02:00,31.0,22.0,30.21,South,170,0.0,0.0,69,0.00,CLR,SCT,0.00,WeatherDisplay:10.37,2013-02-10 15:02:00,
2013-02-10 08:07:00,32.9,21.7,30.22,SSE,151,0.0,0.0,63,0.00,CLR,SCT,0.00,WeatherDisplay:10.37,2013-02-10 15:07:00,
2013-02-10 08:12:00,34.3,21.4,30.22,SSE,155,0.0,0.0,59,0.00,CLR,SCT,0.00,WeatherDisplay:10.37,2013-02-10 15:12:00,
2013-02-10 08:17:00,35.4,21.2,30.22,SSE,147,0.0,0.0,56,0.00,CLR,SCT,0.00,WeatherDisplay:10.37,2013-02-10 15:17:00,
2013-02-10 08:22:00,36.2,21.6,30.22,SSE,152,0.0,0.0,55,0.00,CLR,SCT,0.00,WeatherDisplay:10.37,2013-02-10 15:22:00,
2013-02-10 08:27:00,36.7,22.0,30.22,SE,146,0.0,0.0,55,0.00,CLR,SCT,0.00,WeatherDisplay:10.37,2013-02-10 15:27:00,
2013-02-10 08:32:00,37.2,22.5,30.22,ESE,117,0.0,0.0,55,0.00,CLR,SCT,0.00,WeatherDisplay:10.37,2013-02-10 15:32:00,
2013-02-10 08:37:00,37.7,22.1,30.22,SE,141,0.0,0.0,53,0.00,CLR,SCT,0.00,WeatherDisplay:10.37,2013-02-10 15:37:00,
2013-02-10 08:42:00,37.3,21.7,30.22,East,81,0.1,1.2,53,0.00,CLR,SCT,0.00,WeatherDisplay:10.37,2013-02-10 15:42:00,
2013-02-10 08:47:00,37.2,22.5,30.23,ESE,117,0.0,0.0,55,0.00,CLR,SCT,0.00,WeatherDisplay:10.37,2013-02-10 15:47:00,
2013-02-10 08:52:00,38.0,22.4,30.23,ESE,103,0.0,0.0,53,0.00,CLR,SCT,0.00,WeatherDisplay:10.37,2013-02-10 15:52:00,
2013-02-10 08:57:00,38.5,21.9,30.23,ESE,115,0.0,0.0,51,0.00,CLR,SCT,0.00,WeatherDisplay:10.37,2013-02-10 15:57:00,
2013-02-10 09:02:00,39.1,22.5,30.23,SE,138,0.0,0.0,51,0.00,CLR,SCT,0.00,WeatherDisplay:10.37,2013-02-10 16:02:00,
2013-02-10 09:07:00,39.7,22.6,30.23,ESE,123,1.3,3.5,50,0.00,CLR,SCT,0.00,WeatherDisplay:10.37,2013-02-10 16:07:00,
2013-02-10 09:12:00,39.6,22.5,30.23,ESE,107,0.3,2.3,50,0.00,CLR,SCT,0.00,WeatherDisplay:10.37,2013-02-10 16:12:00,
2013-02-10 09:18:00,39.3,22.2,30.23,East,90,2.1,3.5,50,0.00,CLR,SCT,0.00,WeatherDisplay:10.37,2013-02-10 16:18:00,
2013-02-10 09:23:00,38.6,22.0,30.22,East,97,1.7,4.6,51,0.00,CLR,SCT,0.00,WeatherDisplay:10.37,2013-02-10 16:23:00,
2013-02-10 09:28:00,38.8,22.2,30.22,East,85,5.1,6.9,51,0.00,CLR,SCT,0.00,WeatherDisplay:10.37,2013-02-10 16:28:00,
2013-02-10 09:33:00,38.6,21.5,30.22,ENE,77,4.9,6.9,50,0.00,CLR,SCT,0.00,WeatherDisplay:10.37,2013-02-10 16:33:00,
2013-02-10 09:38:00,39.1,22.5,30.22,East,97,1.2,4.6,51,0.00,CLR,SCT,0.00,WeatherDisplay:10.37,2013-02-10 16:38:00,
2013-02-10 09:43:00,39.5,22.4,30.22,SSE,159,1.6,4.0,50,0.00,CLR,SCT,0.00,WeatherDisplay:10.37,2013-02-10 16:43:00,
2013-02-10 09:48:00,39.2,22.1,30.23,ESE,107,4.2,9.2,50,0.00,CLR,SCT,0.00,WeatherDisplay:10.37,2013-02-10 16:48:00,
2013-02-10 09:53:00,39.6,22.5,30.22,SSE,156,2.8,3.5,50,0.00,CLR,SCT,0.00,WeatherDisplay:10.37,2013-02-10 16:53:00,
2013-02-10 09:58:00,40.2,22.5,30.22,SSE,163,2.9,6.0,49,0.00,CLR,SCT,0.00,WeatherDisplay:10.37,2013-02-10 16:58:00,
2013-02-10 10:03:00,39.9,21.8,30.22,ESE,121,3.6,5.8,48,0.00,CLR,SCT,0.00,WeatherDisplay:10.37,2013-02-10 17:03:00,
2013-02-10 10:08:00,39.8,21.7,30.22,East,85,7.1,10.4,48,0.00,CLR,SCT,0.00,WeatherDisplay:10.37,2013-02-10 17:08:00,
2013-02-10 10:13:00,39.5,21.4,30.22,ESE,122,5.2,6.9,48,0.00,CLR,SCT,0.00,WeatherDisplay:10.37,2013-02-10 17:13:00,
2013-02-10 10:18:00,39.9,21.8,30.21,East,83,2.1,5.8,48,0.00,CLR,SCT,0.00,WeatherDisplay:10.37,2013-02-10 17:18:00,
2013-02-10 10:23:00,40.9,21.7,30.22,SSE,168,2.7,8.1,46,0.00,CLR,SCT,0.00,WeatherDisplay:10.37,2013-02-10 17:23:00,
2013-02-10 10:28:00,41.0,20.7,30.21,East,87,4.0,8.1,44,0.00,CLR,SCT,0.00,WeatherDisplay:10.37,2013-02-10 17:28:00,
2013-02-10 10:33:00,42.3,21.4,30.21,SE,129,2.3,3.5,43,0.00,CLR,SCT,0.00,WeatherDisplay:10.37,2013-02-10 17:33:00,
2013-02-10 10:38:00,42.7,21.2,30.21,East,90,0.5,3.5,42,0.00,CLR,SCT,0.00,WeatherDisplay:10.37,2013-02-10 17:38:00,
2013-02-10 10:43:00,43.2,21.1,30.21,East,100,0.0,0.0,41,0.00,CLR,SCT,0.00,WeatherDisplay:10.37,2013-02-10 17:43:00,
2013-02-10 10:48:00,43.7,20.9,30.21,SE,130,2.3,5.0,40,0.00,CLR,SCT,0.00,WeatherDisplay:10.37,2013-02-10 17:48:00,
2013-02-10 10:53:00,44.1,20.7,30.21,SE,127,1.7,3.5,39,0.00,CLR,SCT,0.00,WeatherDisplay:10.37,2013-02-10 17:53:00,
2013-02-10 10:58:00,44.4,20.3,30.21,SE,141,1.2,3.5,38,0.00,CLR,SCT,0.00,WeatherDisplay:10.37,2013-02-10 17:58:00,
2013-02-10 11:03:00,44.8,18.8,30.20,East,98,1.2,3.5,35,0.00,CLR,SCT,0.00,WeatherDisplay:10.37,2013-02-10 18:03:00,
2013-02-10 11:08:00,44.9,18.9,30.20,ESE,109,1.4,4.6,35,0.00,CLR,SCT,0.00,WeatherDisplay:10.37,2013-02-10 18:08:00,
2013-02-10 11:13:00,45.2,17.8,30.19,East,96,2.8,4.6,33,0.00,CLR,SCT,0.00,WeatherDisplay:10.37,2013-02-10 18:13:00,
2013-02-10 11:18:00,45.8,17.6,30.19,East,97,4.1,5.0,32,0.00,CLR,SCT,0.00,WeatherDisplay:10.37,2013-02-10 18:18:00,
2013-02-10 11:23:00,46.0,17.0,30.19,ESE,109,5.8,8.1,31,0.00,CLR,SCT,0.00,WeatherDisplay:10.37,2013-02-10 18:23:00,
2013-02-10 11:29:00,46.1,14.8,30.19,ESE,113,4.7,9.2,28,0.00,CLR,SCT,0.00,WeatherDisplay:10.37,2013-02-10 18:29:00,
2013-02-10 11:34:00,46.8,16.2,30.18,SE,137,1.9,4.6,29,0.00,CLR,SCT,0.00,WeatherDisplay:10.37,2013-02-10 18:34:00,
2013-02-10 11:39:00,47.4,15.0,30.18,SSE,150,3.9,8.1,27,0.00,CLR,SCT,0.00,WeatherDisplay:10.37,2013-02-10 18:39:00,
2013-02-10 11:44:00,47.7,15.3,30.18,SSE,161,5.6,9.2,27,0.00,CLR,SCT,0.00,WeatherDisplay:10.37,2013-02-10 18:44:00,
2013-02-10 11:49:00,47.7,15.3,30.17,SE,142,2.2,5.0,27,0.00,CLR,SCT,0.00,WeatherDisplay:10.37,2013-02-10 18:49:00,
2013-02-10 11:54:00,47.6,14.3,30.17,ESE,114,1.9,6.9,26,0.00,CLR,SCT,0.00,WeatherDisplay:10.37,2013-02-10 18:54:00,
2013-02-10 11:59:00,47.4,15.0,30.17,SE,133,2.3,6.9,27,0.00,CLR,SCT,0.00,WeatherDisplay:10.37,2013-02-10 18:59:00,
2013-02-10 12:04:00,47.8,14.5,30.17,ESE,115,7.2,10.4,26,0.00,CLR,SCT,0.00,WeatherDisplay:10.37,2013-02-10 19:04:00,
2013-02-10 12:09:00,47.8,14.5,30.16,SSE,161,6.1,11.5,26,0.00,CLR,SCT,0.00,WeatherDisplay:10.37,2013-02-10 19:09:00,
2013-02-10 12:14:00,48.3,15.8,30.16,ESE,107,2.3,4.6,27,0.00,CLR,SCT,0.00,WeatherDisplay:10.37,2013-02-10 19:14:00,
2013-02-10 12:19:00,48.4,15.9,30.16,ESE,104,4.1,8.1,27,0.00,CLR,SCT,0.00,WeatherDisplay:10.37,2013-02-10 19:19:00,
2013-02-10 12:24:00,49.0,15.6,30.15,SE,130,5.2,9.2,26,0.00,CLR,SCT,0.00,WeatherDisplay:10.37,2013-02-10 19:24:00,
2013-02-10 12:29:00,49.1,15.6,30.15,ENE,76,0.7,3.5,26,0.00,CLR,SCT,0.00,WeatherDisplay:10.37,2013-02-10 19:29:00,
2013-02-10 12:34:00,49.6,16.1,30.15,ESE,110,3.4,10.4,26,0.00,CLR,SCT,0.00,WeatherDisplay:10.37,2013-02-10 19:34:00,
2013-02-10 12:39:00,50.3,13.9,30.14,SE,144,0.2,2.3,23,0.00,CLR,SCT,0.00,WeatherDisplay:10.37,2013-02-10 19:39:00,
2013-02-10 12:44:00,50.7,9.9,30.14,SSE,159,0.3,2.3,19,0.00,CLR,SCT,0.00,WeatherDisplay:10.37,2013-02-10 19:44:00,
2013-02-10 12:49:00,50.6,12.0,30.14,NW,310,0.8,4.0,21,0.00,CLR,SCT,0.00,WeatherDisplay:10.37,2013-02-10 19:49:00,
2013-02-10 12:54:00,50.7,11.0,30.14,WNW,287,0.0,1.2,20,0.00,CLR,SCT,0.00,WeatherDisplay:10.37,2013-02-10 19:54:00,
2013-02-10 12:59:00,50.5,10.9,30.14,West,267,2.9,6.9,20,0.00,CLR,SCT,0.00,WeatherDisplay:10.37,2013-02-10 19:59:00,
2013-02-10 13:04:00,50.6,12.0,30.14,WNW,297,0.2,3.0,21,0.00,CLR,SCT,0.00,WeatherDisplay:10.37,2013-02-10 20:04:00,
2013-02-10 13:09:00,50.7,11.0,30.13,West,279,1.8,4.6,20,0.00,CLR,SCT,0.00,WeatherDisplay:10.37,2013-02-10 20:09:00,
2013-02-10 13:14:00,51.2,10.3,30.13,WSW,241,0.6,2.3,19,0.00,CLR,SCT,0.00,WeatherDisplay:10.37,2013-02-10 20:14:00,
2013-02-10 13:19:00,51.6,9.4,30.13,West,265,3.8,5.8,18,0.00,CLR,SCT,0.00,WeatherDisplay:10.37,2013-02-10 20:19:00,
2013-02-10 13:24:00,51.9,9.6,30.13,WNW,300,4.1,9.2,18,0.00,CLR,SCT,0.00,WeatherDisplay:10.37,2013-02-10 20:24:00,
2013-02-10 13:29:00,52.0,9.7,30.12,West,260,0.9,4.6,18,0.00,CLR,SCT,0.00,WeatherDisplay:10.37,2013-02-10 20:29:00,
2013-02-10 13:34:00,52.3,10.0,30.13,SW,225,3.3,4.6,18,0.00,CLR,SCT,0.00,WeatherDisplay:10.37,2013-02-10 20:34:00,
2013-02-10 13:39:00,52.1,5.8,30.12,WSW,238,2.0,5.0,15,0.00,CLR,SCT,0.00,WeatherDisplay:10.37,2013-02-10 20:39:00,
2013-02-10 13:44:00,52.3,5.9,30.12,WNW,300,0.8,3.5,15,0.00,CLR,SCT,0.00,WeatherDisplay:10.37,2013-02-10 20:44:00,
2013-02-10 13:49:00,52.4,7.4,30.12,SSW,212,0.6,3.5,16,0.00,CLR,SCT,0.00,WeatherDisplay:10.37,2013-02-10 20:49:00,
2013-02-10 13:54:00,52.6,8.9,30.12,North,2,2.0,5.8,17,0.00,CLR,SCT,0.00,WeatherDisplay:10.37,2013-02-10 20:54:00,
2013-02-10 13:59:00,53.0,9.3,30.11,North,357,0.3,2.3,17,0.00,CLR,SCT,0.00,WeatherDisplay:10.37,2013-02-10 20:59:00,
2013-02-10 14:04:00,53.2,6.7,30.11,NNW,338,0.2,1.2,15,0.00,CLR,SCT,0.00,WeatherDisplay:10.37,2013-02-10 21:04:00,
2013-02-10 14:09:00,53.5,3.8,30.11,NNW,340,0.0,0.0,13,0.00,CLR,SCT,0.00,WeatherDisplay:10.37,2013-02-10 21:09:00,
2013-02-10 14:14:00,54.0,2.4,30.11,WSW,238,2.4,4.6,12,0.00,CLR,SCT,0.00,WeatherDisplay:10.37,2013-02-10 21:14:00,
2013-02-10 14:19:00,53.4,3.7,30.11,SSW,213,5.2,8.1,13,0.00,CLR,SCT,0.00,WeatherDisplay:10.37,2013-02-10 21:19:00,
2013-02-10 14:24:00,53.3,1.9,30.11,East,88,2.7,6.9,12,0.00,CLR,SCT,0.00,WeatherDisplay:10.37,2013-02-10 21:24:00,
2013-02-10 14:29:00,53.3,5.2,30.11,NNW,336,2.3,4.6,14,0.00,CLR,SCT,0.00,WeatherDisplay:10.37,2013-02-10 21:29:00,
2013-02-10 14:34:00,53.5,3.8,30.11,SW,234,1.9,6.0,13,0.00,CLR,SCT,0.00,WeatherDisplay:10.37,2013-02-10 21:34:00,
2013-02-10 14:39:00,54.2,2.6,30.11,West,260,8.6,12.7,12,0.00,CLR,SCT,0.00,WeatherDisplay:10.37,2013-02-10 21:39:00,
2013-02-10 14:44:00,53.9,-1.5,30.11,WSW,239,7.0,10.4,10,0.00,CLR,SCT,0.00,WeatherDisplay:10.37,2013-02-10 21:44:00,
2013-02-10 14:49:00,53.7,0.3,30.11,WNW,288,9.8,13.8,11,0.00,CLR,SCT,0.00,WeatherDisplay:10.37,2013-02-10 21:49:00,
2013-02-10 14:54:00,52.9,1.6,30.11,West,270,8.2,13.8,12,0.00,CLR,SCT,0.00,WeatherDisplay:10.37,2013-02-10 21:54:00,
2013-02-10 14:59:00,53.2,3.5,30.11,West,276,7.9,11.5,13,0.00,CLR,SCT,0.00,WeatherDisplay:10.37,2013-02-10 21:59:00,
2013-02-10 15:04:00,53.5,3.8,30.10,WNW,283,8.0,13.8,13,0.00,CLR,SCT,0.00,WeatherDisplay:10.37,2013-02-10 22:04:00,
2013-02-10 15:09:00,53.7,0.3,30.11,SW,229,6.7,13.8,11,0.00,CLR,SCT,0.00,WeatherDisplay:10.37,2013-02-10 22:09:00,
2013-02-10 15:14:00,54.2,-1.3,30.10,SW,228,4.2,6.9,10,0.00,CLR,SCT,0.00,WeatherDisplay:10.37,2013-02-10 22:14:00,
2013-02-10 15:19:00,54.6,-1.0,30.10,SSE,163,3.2,5.8,10,0.00,CLR,SCT,0.00,WeatherDisplay:10.37,2013-02-10 22:19:00,
2013-02-10 15:24:00,54.7,-0.9,30.10,SSW,207,6.2,10.4,10,0.00,CLR,SCT,0.00,WeatherDisplay:10.37,2013-02-10 22:24:00,
2013-02-10 15:29:00,54.5,-1.1,30.10,SW,234,2.3,8.1,10,0.00,CLR,SCT,0.00,WeatherDisplay:10.37,2013-02-10 22:29:00,
2013-02-10 15:34:00,54.2,-1.3,30.10,West,260,1.1,3.5,10,0.00,CLR,SCT,0.00,WeatherDisplay:10.37,2013-02-10 22:34:00,
2013-02-10 15:39:00,53.8,-1.6,30.10,West,275,5.5,9.2,10,0.00,CLR,SCT,0.00,WeatherDisplay:10.37,2013-02-10 22:39:00,
2013-02-10 15:44:00,53.3,0.0,30.10,WSW,256,6.8,11.5,11,0.00,CLR,SCT,0.00,WeatherDisplay:10.37,2013-02-10 22:44:00,
2013-02-10 15:49:00,53.1,1.7,30.10,SW,234,7.7,11.5,12,0.00,CLR,SCT,0.00,WeatherDisplay:10.37,2013-02-10 22:49:00,
2013-02-10 15:54:00,53.0,1.6,30.10,WNW,296,2.3,5.8,12,0.00,CLR,SCT,0.00,WeatherDisplay:10.37,2013-02-10 22:54:00,
2013-02-10 15:59:00,53.0,1.6,30.11,West,267,10.7,16.1,12,0.00,CLR,SCT,0.00,WeatherDisplay:10.37,2013-02-10 22:59:00,
2013-02-10 16:04:00,52.9,3.3,30.10,WNW,296,5.0,6.9,13,0.00,CLR,SCT,0.00,WeatherDisplay:10.37,2013-02-10 23:04:00,
2013-02-10 16:09:00,52.7,1.4,30.11,West,264,1.1,3.5,12,0.00,CLR,SCT,0.00,WeatherDisplay:10.37,2013-02-10 23:09:00,
2013-02-10 16:14:00,53.1,5.1,30.11,West,271,5.3,9.2,14,0.00,CLR,SCT,0.00,WeatherDisplay:10.37,2013-02-10 23:14:00,
2013-02-10 16:19:00,53.1,6.6,30.11,WSW,240,5.4,10.4,15,0.00,CLR,SCT,0.00,WeatherDisplay:10.37,2013-02-10 23:19:00,
2013-02-10 16:24:00,53.0,6.5,30.11,SW,220,1.1,3.5,15,0.00,CLR,SCT,0.00,WeatherDisplay:10.37,2013-02-10 23:24:00,
2013-02-10 16:29:00,53.1,6.6,30.11,West,263,1.1,3.5,15,0.00,CLR,SCT,0.00,WeatherDisplay:10.37,2013-02-10 23:29:00,
2013-02-10 16:34:00,53.2,5.1,30.10,SSW,212,5.1,11.5,14,0.00,CLR,SCT,0.00,WeatherDisplay:10.37,2013-02-10 23:34:00,
2013-02-10 16:39:00,52.9,4.9,30.10,West,270,4.9,9.0,14,0.00,CLR,SCT,0.00,WeatherDisplay:10.37,2013-02-10 23:39:00,
2013-02-10 16:44:00,52.4,2.9,30.10,NW,325,3.4,8.1,13,0.00,CLR,SCT,0.00,WeatherDisplay:10.37,2013-02-10 23:44:00,
2013-02-10 16:49:00,52.4,4.5,30.11,WSW,245,0.0,1.2,14,0.00,CLR,SCT,0.00,WeatherDisplay:10.37,2013-02-10 23:49:00,
2013-02-10 16:54:00,52.5,4.6,30.11,South,186,1.4,3.5,14,0.00,CLR,SCT,0.00,WeatherDisplay:10.37,2013-02-10 23:54:00,
2013-02-10 16:59:00,52.3,2.8,30.11,NNW,346,0.1,1.2,13,0.00,CLR,SCT,0.00,WeatherDisplay:10.37,2013-02-10 23:59:00,
2013-02-10 17:04:00,52.2,1.0,30.11,WSW,239,3.6,8.0,12,0.00,CLR,SCT,0.00,WeatherDisplay:10.37,2013-02-11 00:04:00,
2013-02-10 17:09:00,51.4,-5.7,30.11,SW,234,4.2,8.1,9,0.00,CLR,SCT,0.00,WeatherDisplay:10.37,2013-02-11 00:09:00,
2013-02-10 17:14:00,51.0,-6.0,30.12,West,276,4.4,8.1,9,0.00,CLR,SCT,0.00,WeatherDisplay:10.37,2013-02-11 00:14:00,
2013-02-10 17:19:00,50.5,-4.2,30.12,WSW,242,5.2,8.1,10,0.00,CLR,SCT,0.00,WeatherDisplay:10.37,2013-02-11 00:19:00,
2013-02-10 17:24:00,50.1,-4.5,30.12,SW,217,0.1,1.2,10,0.00,CLR,SCT,0.00,WeatherDisplay:10.37,2013-02-11 00:24:00,
2013-02-10 17:29:00,49.4,-5.0,30.12,SW,234,6.1,11.0,10,0.00,CLR,SCT,0.00,WeatherDisplay:10.37,2013-02-11 00:29:00,
2013-02-10 17:34:00,48.8,-3.5,30.12,West,265,3.6,4.6,11,0.00,CLR,SCT,0.00,WeatherDisplay:10.37,2013-02-11 00:34:00,
2013-02-10 17:39:00,48.4,-2.0,30.12,SW,230,2.3,3.5,12,0.00,CLR,SCT,0.00,WeatherDisplay:10.37,2013-02-11 00:39:00,
2013-02-10 17:44:00,48.0,-2.3,30.12,SW,223,0.5,2.3,12,0.00,CLR,SCT,0.00,WeatherDisplay:10.37,2013-02-11 00:44:00,
2013-02-10 17:49:00,47.6,-0.9,30.13,SW,227,1.2,3.5,13,0.00,CLR,SCT,0.00,WeatherDisplay:10.37,2013-02-11 00:49:00,
2013-02-10 17:54:00,47.2,0.3,30.13,West,269,1.8,5.8,14,0.00,CLR,SCT,0.00,WeatherDisplay:10.37,2013-02-11 00:54:00,
2013-02-10 17:59:00,47.2,0.3,30.13,SSW,209,0.0,0.0,14,0.00,CLR,SCT,0.00,WeatherDisplay:10.37,2013-02-11 00:59:00,
2013-02-10 18:04:00,47.0,1.6,30.13,SSW,209,0.0,0.0,15,0.00,CLR,SCT,0.00,WeatherDisplay:10.37,2013-02-11 01:04:00,
2013-02-10 18:09:00,46.6,2.7,30.13,SSW,209,0.0,0.0,16,0.00,CLR,SCT,0.00,WeatherDisplay:10.37,2013-02-11 01:09:00,
2013-02-10 18:14:00,46.2,2.4,30.13,SSW,209,0.0,0.0,16,0.00,CLR,SCT,0.00,WeatherDisplay:10.37,2013-02-11 01:14:00,
2013-02-10 18:19:00,45.6,3.2,30.13,SSW,209,0.0,0.0,17,0.00,CLR,SCT,0.00,WeatherDisplay:10.37,2013-02-11 01:19:00,
2013-02-10 18:24:00,44.9,2.6,30.14,SSW,209,0.0,0.0,17,0.00,CLR,SCT,0.00,WeatherDisplay:10.37,2013-02-11 01:24:00,
2013-02-10 18:29:00,44.4,4.6,30.14,SSW,209,0.0,0.0,19,0.00,CLR,SCT,0.00,WeatherDisplay:10.37,2013-02-11 01:29:00,
2013-02-10 18:34:00,44.3,4.6,30.14,SSW,209,0.0,0.0,19,0.00,CLR,SCT,0.00,WeatherDisplay:10.37,2013-02-11 01:34:00,
2013-02-10 18:39:00,44.1,5.5,30.14,SSW,209,0.0,0.0,20,0.00,CLR,SCT,0.00,WeatherDisplay:10.37,2013-02-11 01:39:00,
2013-02-10 18:44:00,43.7,6.2,30.14,SSW,209,0.0,0.0,21,0.00,CLR,SCT,0.00,WeatherDisplay:10.37,2013-02-11 01:44:00,
2013-02-10 18:49:00,43.2,4.8,30.14,SSW,209,0.0,0.0,20,0.00,CLR,SCT,0.00,WeatherDisplay:10.37,2013-02-11 01:49:00,
2013-02-10 18:54:00,42.9,5.6,30.14,SSW,209,0.0,0.0,21,0.00,CLR,SCT,0.00,WeatherDisplay:10.37,2013-02-11 01:54:00,
2013-02-10 18:59:00,42.4,6.2,30.15,SSW,209,0.0,0.0,22,0.00,CLR,SCT,0.00,WeatherDisplay:10.37,2013-02-11 01:59:00,
2013-02-10 19:04:00,41.8,5.7,30.15,SSW,209,0.0,0.0,22,0.00,CLR,SCT,0.00,WeatherDisplay:10.37,2013-02-11 02:04:00,
2013-02-10 19:09:00,41.1,4.1,30.15,SSW,209,0.0,0.0,21,0.00,CLR,SCT,0.00,WeatherDisplay:10.37,2013-02-11 02:09:00,
2013-02-10 19:14:00,40.6,5.6,30.15,SSW,209,0.0,0.0,23,0.00,CLR,SCT,0.00,WeatherDisplay:10.37,2013-02-11 02:14:00,
2013-02-10 19:19:00,40.2,5.3,30.15,SSW,209,0.0,0.0,23,0.00,CLR,SCT,0.00,WeatherDisplay:10.37,2013-02-11 02:19:00,
2013-02-10 19:24:00,39.8,5.9,30.15,SSW,209,0.0,0.0,24,0.00,CLR,SCT,0.00,WeatherDisplay:10.37,2013-02-11 02:24:00,
2013-02-10 19:29:00,39.5,5.6,30.15,SSW,209,0.0,0.0,24,0.00,CLR,SCT,0.00,WeatherDisplay:10.37,2013-02-11 02:29:00,
2013-02-10 19:34:00,39.7,5.8,30.15,SSW,209,0.0,0.0,24,0.00,CLR,SCT,0.00,WeatherDisplay:10.37,2013-02-11 02:34:00,
2013-02-10 19:39:00,39.8,6.8,30.15,SSW,209,0.0,0.0,25,0.00,CLR,SCT,0.00,WeatherDisplay:10.37,2013-02-11 02:39:00,
2013-02-10 19:44:00,39.6,7.5,30.16,SSW,209,0.0,0.0,26,0.00,CLR,SCT,0.00,WeatherDisplay:10.37,2013-02-11 02:44:00,
2013-02-10 19:49:00,38.8,7.6,30.16,SSW,209,0.0,0.0,27,0.00,CLR,SCT,0.00,WeatherDisplay:10.37,2013-02-11 02:49:00,
2013-02-10 19:54:00,38.1,7.0,30.16,SSW,209,0.1,1.2,27,0.00,CLR,SCT,0.00,WeatherDisplay:10.37,2013-02-11 02:54:00,
2013-02-10 19:59:00,38.1,7.0,30.16,SSW,209,0.0,0.0,27,0.00,CLR,SCT,0.00,WeatherDisplay:10.37,2013-02-11 02:59:00,
2013-02-10 20:04:00,39.1,7.9,30.16,SSW,209,1.4,3.5,27,0.00,CLR,SCT,0.00,WeatherDisplay:10.37,2013-02-11 03:04:00,
2013-02-10 20:09:00,40.4,7.3,30.16,SSW,209,0.0,0.0,25,0.00,CLR,SCT,0.00,WeatherDisplay:10.37,2013-02-11 03:09:00,
2013-02-10 20:14:00,41.1,7.0,30.16,SSW,209,0.0,0.0,24,0.00,CLR,SCT,0.00,WeatherDisplay:10.37,2013-02-11 03:14:00,
2013-02-10 20:19:00,41.5,8.2,30.16,SSW,209,0.1,1.2,25,0.00,CLR,SCT,0.00,WeatherDisplay:10.37,2013-02-11 03:19:00,
2013-02-10 20:24:00,41.3,8.1,30.16,SSW,209,0.0,0.0,25,0.00,CLR,SCT,0.00,WeatherDisplay:10.37,2013-02-11 03:24:00,
2013-02-10 20:29:00,41.0,7.8,30.16,SSW,209,0.0,0.0,25,0.00,CLR,SCT,0.00,WeatherDisplay:10.37,2013-02-11 03:29:00,
2013-02-10 20:34:00,40.7,7.5,30.16,SSW,209,0.0,0.0,25,0.00,CLR,SCT,0.00,WeatherDisplay:10.37,2013-02-11 03:34:00,
2013-02-10 20:39:00,40.2,8.0,30.16,SSW,209,0.0,0.0,26,0.00,CLR,SCT,0.00,WeatherDisplay:10.37,2013-02-11 03:39:00,
2013-02-10 20:44:00,39.6,8.3,30.17,SSW,209,0.0,0.0,27,0.00,CLR,SCT,0.00,WeatherDisplay:10.37,2013-02-11 03:44:00,
2013-02-10 20:49:00,38.8,10.0,30.17,SSW,209,0.0,0.0,30,0.00,CLR,SCT,0.00,WeatherDisplay:10.37,2013-02-11 03:49:00,
2013-02-10 20:54:00,38.0,8.5,30.17,SSW,209,0.0,0.0,29,0.00,CLR,SCT,0.00,WeatherDisplay:10.37,2013-02-11 03:54:00,
2013-02-10 20:59:00,37.4,9.5,30.17,SSW,209,0.0,0.0,31,0.00,CLR,SCT,0.00,WeatherDisplay:10.37,2013-02-11 03:59:00,
2013-02-10 21:04:00,37.6,11.0,30.17,SSW,194,0.0,0.0,33,0.00,CLR,SCT,0.00,WeatherDisplay:10.37,2013-02-11 04:04:00,
2013-02-10 21:09:00,37.7,11.1,30.17,SSW,194,0.0,0.0,33,0.00,CLR,SCT,0.00,WeatherDisplay:10.37,2013-02-11 04:09:00,
2013-02-10 21:14:00,37.5,11.6,30.17,SSW,194,0.0,0.0,34,0.00,CLR,SCT,0.00,WeatherDisplay:10.37,2013-02-11 04:14:00,
2013-02-10 21:19:00,36.6,12.1,30.17,SSW,194,0.0,0.0,36,0.00,CLR,SCT,0.00,WeatherDisplay:10.37,2013-02-11 04:19:00,
2013-02-10 21:24:00,36.2,11.8,30.17,SSW,194,0.0,0.0,36,0.00,CLR,SCT,0.00,WeatherDisplay:10.37,2013-02-11 04:24:00,
2013-02-10 21:29:00,36.0,11.0,30.17,SSW,194,0.0,0.0,35,0.00,CLR,SCT,0.00,WeatherDisplay:10.37,2013-02-11 04:29:00,
2013-02-10 21:34:00,36.0,11.0,30.17,SSW,194,0.0,0.0,35,0.00,CLR,SCT,0.00,WeatherDisplay:10.37,2013-02-11 04:34:00,
2013-02-10 21:39:00,36.0,11.6,30.18,SSW,194,0.0,0.0,36,0.00,CLR,SCT,0.00,WeatherDisplay:10.37,2013-02-11 04:39:00,
2013-02-10 21:44:00,35.9,10.9,30.18,SSW,194,0.0,0.0,35,0.00,CLR,SCT,0.00,WeatherDisplay:10.37,2013-02-11 04:44:00,
2013-02-10 21:49:00,35.6,11.2,30.18,SSW,194,0.0,0.0,36,0.00,CLR,SCT,0.00,WeatherDisplay:10.37,2013-02-11 04:49:00,
2013-02-10 21:54:00,35.4,10.4,30.18,SSW,192,0.5,2.3,35,0.00,CLR,SCT,0.00,WeatherDisplay:10.37,2013-02-11 04:54:00,
2013-02-10 21:59:00,36.3,10.6,30.18,SSW,192,0.0,0.0,34,0.00,CLR,SCT,0.00,WeatherDisplay:10.37,2013-02-11 04:59:00,
2013-02-10 22:00:00,36.5,10.7,30.18,SSW,192,0.0,0.0,34,0.00,CLR,SCT,0.00,WeatherDisplay:10.37,2013-02-11 05:00:00,
2013-02-10 22:01:00,36.6,10.8,30.18,SSW,192,0.0,0.0,34,0.00,CLR,SCT,0.00,WeatherDisplay:10.37,2013-02-11 05:01:00,
2013-02-10 22:06:00,36.7,11.6,30.18,SSW,192,0.0,1.0,35,0.00,CLR,SCT,0.00,WeatherDisplay:10.37,2013-02-11 05:06:00,
2013-02-10 22:11:00,36.0,11.6,30.17,SSW,192,0.0,0.0,36,0.00,CLR,SCT,0.00,WeatherDisplay:10.37,2013-02-11 05:11:00,
2013-02-10 22:16:00,35.7,11.3,30.17,SSW,192,0.0,0.0,36,0.00,CLR,SCT,0.00,WeatherDisplay:10.37,2013-02-11 05:16:00,
2013-02-10 22:21:00,35.1,10.8,30.17,SSW,192,0.0,0.0,36,0.00,CLR,SCT,0.00,WeatherDisplay:10.37,2013-02-11 05:21:00,
2013-02-10 22:26:00,34.8,10.5,30.17,SSW,192,0.0,0.0,36,0.00,CLR,SCT,0.00,WeatherDisplay:10.37,2013-02-11 05:26:00,
2013-02-10 22:31:00,34.6,11.0,30.17,SSW,192,0.0,0.0,37,0.00,CLR,SCT,0.00,WeatherDisplay:10.37,2013-02-11 05:31:00,
2013-02-10 22:36:00,34.2,10.0,30.17,SSW,192,0.0,0.0,36,0.00,CLR,SCT,0.00,WeatherDisplay:10.37,2013-02-11 05:36:00,
2013-02-10 22:41:00,34.3,8.1,30.17,South,191,0.2,1.2,33,0.00,CLR,SCT,0.00,WeatherDisplay:10.37,2013-02-11 05:41:00,
2013-02-10 22:46:00,34.9,8.7,30.17,South,191,0.0,0.0,33,0.00,CLR,SCT,0.00,WeatherDisplay:10.37,2013-02-11 05:46:00,
2013-02-10 22:51:00,34.4,9.5,30.17,SW,231,1.0,3.5,35,0.00,CLR,SCT,0.00,WeatherDisplay:10.37,2013-02-11 05:51:00,
2013-02-10 22:56:00,34.4,8.9,30.17,SW,231,0.0,0.0,34,0.00,CLR,SCT,0.00,WeatherDisplay:10.37,2013-02-11 05:56:00,
2013-02-10 23:01:00,35.1,8.8,30.17,West,259,1.7,3.5,33,0.00,CLR,SCT,0.00,WeatherDisplay:10.37,2013-02-11 06:01:00,
2013-02-10 23:06:00,35.1,8.8,30.17,WSW,249,0.1,1.2,33,0.00,CLR,SCT,0.00,WeatherDisplay:10.37,2013-02-11 06:06:00,
2013-02-10 23:11:00,35.4,9.8,30.17,WSW,252,0.0,0.0,34,0.00,CLR,SCT,0.00,WeatherDisplay:10.37,2013-02-11 06:11:00,
2013-02-10 23:16:00,35.1,9.5,30.17,WSW,252,0.0,0.0,34,0.00,CLR,SCT,0.00,WeatherDisplay:10.37,2013-02-11 06:16:00,
2013-02-10 23:21:00,34.7,8.5,30.17,WSW,252,0.0,0.0,33,0.00,CLR,SCT,0.00,WeatherDisplay:10.37,2013-02-11 06:21:00,
2013-02-10 23:26:00,34.6,8.4,30.17,WSW,252,0.0,0.0,33,0.00,CLR,SCT,0.00,WeatherDisplay:10.37,2013-02-11 06:26:00,
2013-02-10 23:31:00,34.7,9.1,30.17,WSW,252,0.0,0.0,34,0.00,CLR,SCT,0.00,WeatherDisplay:10.37,2013-02-11 06:31:00,
2013-02-10 23:36:00,34.8,9.9,30.17,WSW,252,0.0,0.0,35,0.00,CLR,SCT,0.00,WeatherDisplay:10.37,2013-02-11 06:36:00,
2013-02-10 23:41:00,35.1,10.2,30.17,WSW,252,0.0,0.0,35,0.00,CLR,SCT,0.00,WeatherDisplay:10.37,2013-02-11 06:41:00,
2013-02-10 23:46:00,35.4,11.1,30.17,WSW,252,0.0,0.0,36,0.00,CLR,SCT,0.00,WeatherDisplay:10.37,2013-02-11 06:46:00,
2013-02-10 23:51:00,35.2,10.9,30.16,WSW,252,0.0,0.0,36,0.00,CLR,SCT,0.00,WeatherDisplay:10.37,2013-02-11 06:51:00,
2013-02-10 23:56:00,34.4,11.4,30.16,WSW,252,0.0,0.0,38,0.00,CLR,SCT,0.00,WeatherDisplay:10.37,2013-02-11 06:56:00,